Weather Roundup
Issued by NWS Chicago, IL

Home | Current Version | Previous Version | Text Only | Print | Product List | Glossary On
Versions: 1 2 3 4 5 6 7 8 9 10 11 12 13 14 15 16 17 18 19 20 21 22 23 24 25 26 27 28 29 30 31 32 33 34 35 36 37 38 39 40 41 42 43 44 45 46 47 48 49 50
000
NZUS59 KLOT 292108
HRRLOT

CHICAGO AREA WEATHER ROUNDUP
NATIONAL WEATHER SERVICE CHICAGO/ROMEOVILLE IL
400 PM CDT SUN MAR 29 2015

NOTE: "FAIR" INDICATES FEW OR NO CLOUDS BELOW 12,000 FEET WITH NO
SIGNIFICANT WEATHER AND/OR OBSTRUCTIONS TO VISIBILITY.

* THESE STATIONS ARE NOT UNDER NWS QUALITY CONTROL. THEY ALSO MAY NOT
  REPORT WEATHER SUCH AS PRECIPITATION OR FOG.

ILZ005-006-012>014-019>023-292200-
NORTHEAST ILLINOIS

CITY           SKY/WX    TMP DP  RH WIND       PRES   REMARKS
OHARE          PTSUNNY   41  30  65 SW20G29   29.80F
MIDWAY         PTSUNNY   43  31  62 SW25G31   29.82F
AURORA         PTSUNNY   46  33  60 SW21G31   29.82F
LANSING*       CLOUDY    40  30  68 SW18G25   29.85F
JOLIET*        PTSUNNY   47  35  63 SW16G22   29.84F
WAUKEGAN       CLOUDY    40  31  70 SW26G35   29.76F
DUPAGE AIRPORT CLOUDY    43  33  68 SW20G32   29.82F
WHEELING       CLOUDY    41  29  62 SW21G31   29.81F
KANKAKEE*      CLOUDY    44  35  72 S25       29.88F
MORRIS*        MOSUNNY   46  34  61 SW24G33   29.84F
LEWIS AIRPORT* PTSUNNY   44  33  64 SW24G32   29.82F
NORTHERLY IS     N/A     40  29  65 S18         N/A
$$

WIZ051-052-058>065-066-070>072-292200-
SOUTHEAST WISCONSIN

CITY           SKY/WX    TMP DP  RH WIND       PRES   REMARKS
MILWAUKEE      CLOUDY    39  29  67 SW26G35   29.71F
KENOSHA*       CLOUDY    39  31  72 SW18G31   29.74F
RACINE*        CLOUDY    40  30  67 SW18G29   29.74F
BURLINGTON     PTSUNNY   38  32  79 S22G31    29.72F
WAUKESHA       CLOUDY    36  30  80 S17G35    29.70F
WEST BEND      CLOUDY    36  32  87 SW15G25   29.64F
$$

INZ001>003-010>013-019-020-292200-
NORTHWEST INDIANA

CITY           SKY/WX    TMP DP  RH WIND       PRES   REMARKS
GARY*          CLOUDY    41  27  56 SW13G30   29.86F
MICHIGAN CITY* NOT AVBL
RENSSELAER*    NOT AVBL
VALPARAISO     CLOUDY    37  28  70 S13       29.88F
$$

LMZ740>746-292200-
SOUTHERN LAKE MICHIGAN

STATION/POSITION TIME  SKY/WX   TEMP WIND        PRES    VSBY
                                AIR  DIR/SP/G
                 (UTC)          (F)  (DEG/KT/KT) (MB)    (MI)
HARRISON CRIB    2000            37  200/ 36/ 47   N/A
BURNHAM HARBOR   2100            41  170/ 11/ 22   N/A
CALUMET HARBOR   2000            37  190/ 16/ 25 1009.6F
BURNS HARBOR     2000            37  190/ 17/ 27 1011.5
MICHIGAN CITY    2000            36  150/ 22/ 27   N/A
$$

ABBREVIATIONS USED IN REMARKS
   TC - TEMPERATURE IN CELSIUS
  WCI - WIND CHILL INDEX
   HX - HEAT INDEX
  VSB - VISIBILITY
$$


USA.gov is the U.S. government's official web portal to all federal, state and local government web resources and services.